Погода в Оннесе

Россия / Республика Саха (Якутия)     60°27′40″N   131°05′59″E
темп.,
°C
ветер,
м/с
пор.,
м/с
влажн.,
%
обл.,
%
осадки,
мм/ч
давл.,
гПа
погр.,
м
3 марта, ср
ср300:00−32з0110098 0.0 102319
03:00−34юз0110096 0.0 102219
06:00−35юз0010085 0.0 102219
09:00−32ююз009872 0.0 102134
12:00−24ю008887 0.0 1019369
15:00−23зсз018493 0.0 1017670
18:00−29зсз0193100 0.0 101819
21:00−31сз1298100 0.0 101819
4 марта, чт
чт400:00−33зсз119899 0.0 101819
03:00−34з229794 0.0 101819
06:00−34зюз2695100 0.0 1018223
09:00−31з3793100 0.1 1019577
12:00−30зсз4790100 0.1 1019859
15:00−29зсз4787100 0.3 10201118
18:00−30зсз3894100 0.1 1021658
21:00−30зсз3894100 0.1 1023909
5 марта, пт
пт500:00−31зсз2895100 0.1 1024916
03:00−33зсз2895100 0.1 1026501
06:00−36з2895100 0.0 1027234
09:00−33зсз4109198 0.0 1029616
12:00−29зсз4888100 0.0 1029793
15:00−27зсз4887100 0.1 1028836
18:00−30зсз2793100 0.0 1028146
21:00−33з2596100 0.0 1029103
6 марта, сб
сб600:00−34з229741 0.0 102841
03:00−34зюз239766 0.0 102980
06:00−35з239679 0.0 102932
09:00−31зсз379241 0.0 1028372
12:00−25зсз358987 0.0 1027580
15:00−22зсз258694 0.0 1025694
18:00−26ссз1294100 0.0 102519
21:00−31с119857 0.0 102619
7 марта, вс
вс700:00−33з001000 0.0 102519
03:00−34юз001000 0.0 102519
06:00−35юв011000 0.0 102519
09:00−29ююв01960 0.0 1024100
12:00−21ю118758 0.0 1023358
15:00−18ююв018149 0.0 1021508
18:00−25в119235 0.0 102120
21:00−28в119618 0.0 102219